Total_Precipitation_Accumulation
0.08 0.06 0.03 0.09 0.11 0.18 0.38 0.48 0.35 0.43 0.32 0.25 0.13 0.04 0.00 0.00 0.00 0.00 0.00 0.00 0.00 0.00 0.00 0.00 0.00 0.00 0.00 0.00 0.01 0.03 0.10 0.12 0.16 0.10 0.08 0.13 0.23 0.57 0.50 0.62 0.58 0.64 0.69 0.54
0.01 0.00 0.00 0.00 0.03 0.08 0.19 0.30 0.30 0.21 0.23 0.19 0.10 0.03 0.01 0.00 0.01 0.01 0.02 0.00 0.00 0.00 0.00 0.00 0.00 0.00 0.00 0.00 0.00 0.02 0.05 0.10 0.10 0.14 0.10 0.11 0.11 0.23 0.28 0.38 0.43 0.45 0.59 0.59
0.05 0.00 0.00 0.03 0.04 0.07 0.15 0.19 0.20 0.22 0.23 0.11 0.10 0.08 0.04 0.01 0.01 0.01 0.02 0.03 0.01 0.00 0.00 0.00 0.00 0.00 0.00 0.00 0.00 0.00 0.03 0.08 0.13 0.18 0.16 0.11 0.13 0.17 0.17 0.17 0.34 0.43 0.52 0.49
0.05 0.03 0.02 0.06 0.02 0.02 0.06 0.07 0.07 0.09 0.09 0.09 0.08 0.09 0.07 0.03 0.02 0.02 0.01 0.02 0.04 0.01 0.00 0.00 0.00 0.00 0.00 0.00 0.00 0.00 0.00 0.03 0.07 0.13 0.18 0.17 0.13 0.12 0.09 0.12 0.19 0.31 0.37 0.39
0.08 0.03 0.04 0.01 0.01 0.01 0.04 0.04 0.01 0.03 0.02 0.02 0.03 0.06 0.07 0.03 0.02 0.01 0.01 0.01 0.02 0.03 0.01 0.00 0.00 0.00 0.00 0.00 0.00 0.00 0.00 0.01 0.01 0.04 0.11 0.21 0.21 0.21 0.19 0.11 0.14 0.31 0.31 0.24
0.00 0.00 0.02 0.06 0.00 0.00 0.00 0.04 0.00 0.01 0.02 0.01 0.01 0.07 0.04 0.02 0.01 0.01 0.00 0.01 0.01 0.01 0.02 0.01 0.00 0.00 0.00 0.00 0.00 0.00 0.00 0.01 0.01 0.03 0.09 0.15 0.26 0.23 0.25 0.32 0.29 0.24 0.27 0.36
0.00 0.00 0.04 0.05 0.00 0.00 0.01 0.02 0.00 0.02 0.02 0.03 0.06 0.07 0.03 0.01 0.01 0.00 0.00 0.00 0.00 0.01 0.01 0.01 0.01 0.00 0.00 0.00 0.00 0.00 0.00 0.00 0.00 0.01 0.04 0.10 0.13 0.22 0.26 0.26 0.45 0.40 0.23 0.30
0.00 0.01 0.04 0.02 0.03 0.09 0.10 0.05 0.02 0.03 0.02 0.06 0.03 0.01 0.00 0.00 0.00 0.00 0.00 0.00 0.00 0.00 0.01 0.01 0.02 0.01 0.00 0.00 0.00 0.00 0.00 0.00 0.00 0.00 0.00 0.02 0.06 0.10 0.20 0.23 0.18 0.34 0.38 0.30
0.04 0.06 0.09 0.07 0.14 0.13 0.15 0.13 0.07 0.12 0.05 0.11 0.09 0.05 0.03 0.03 0.02 0.01 0.01 0.01 0.01 0.01 0.01 0.01 0.02 0.02 0.01 0.00 0.00 0.00 0.00 0.01 0.01 0.01 0.00 0.00 0.00 0.02 0.04 0.10 0.18 0.16 0.17 0.15
0.04 0.03 0.01 0.04 0.05 0.06 0.10 0.16 0.16 0.19 0.17 0.14 0.14 0.08 0.06 0.04 0.04 0.04 0.05 0.07 0.04 0.03 0.03 0.03 0.02 0.02 0.03 0.01 0.00 0.00 0.00 0.01 0.01 0.00 0.00 0.00 0.00 0.00 0.02 0.04 0.10 0.14 0.14 0.16
0.01 0.02 0.01 0.01 0.03 0.08 0.06 0.05 0.06 0.10 0.17 0.22 0.17 0.13 0.15 0.14 0.15 0.17 0.19 0.20 0.16 0.12 0.10 0.07 0.04 0.02 0.02 0.03 0.03 0.01 0.00 0.00 0.00 0.01 0.01 0.00 0.00 0.01 0.02 0.05 0.10 0.11 0.08 0.11
0.02 0.05 0.09 0.03 0.06 0.08 0.08 0.08 0.13 0.15 0.14 0.17 0.25 0.24 0.16 0.13 0.16 0.23 0.25 0.26 0.22 0.19 0.17 0.16 0.14 0.10 0.07 0.06 0.07 0.04 0.02 0.01 0.02 0.01 0.00 0.01 0.00 0.01 0.06 0.07 0.10 0.15 0.20 0.13
0.03 0.02 0.05 0.05 0.04 0.04 0.07 0.09 0.14 0.15 0.19 0.19 0.22 0.25 0.22 0.23 0.26 0.25 0.33 0.40 0.38 0.36 0.31 0.27 0.25 0.20 0.16 0.14 0.12 0.11 0.11 0.05 0.03 0.03 0.01 0.01 0.01 0.01 0.01 0.05 0.06 0.09 0.14 0.18
0.00 0.00 0.00 0.00 0.01 0.01 0.04 0.08 0.11 0.09 0.11 0.15 0.18 0.19 0.24 0.26 0.27 0.30 0.43 0.52 0.50 0.45 0.42 0.40 0.36 0.34 0.33 0.30 0.28 0.25 0.24 0.23 0.13 0.06 0.03 0.02 0.03 0.03 0.03 0.02 0.01 0.03 0.08 0.11
0.00 0.00 0.00 0.00 0.00 0.00 0.00 0.01 0.01 0.03 0.04 0.05 0.08 0.12 0.15 0.20 0.24 0.34 0.42 0.48 0.51 0.44 0.43 0.38 0.35 0.44 0.47 0.39 0.40 0.44 0.38 0.36 0.31 0.23 0.15 0.10 0.07 0.06 0.08 0.07 0.05 0.03 0.02 0.07
0.00 0.00 0.00 0.00 0.00 0.00 0.00 0.00 0.01 0.01 0.02 0.04 0.03 0.05 0.13 0.20 0.23 0.25 0.25 0.32 0.43 0.52 0.47 0.38 0.29 0.35 0.41 0.45 0.39 0.33 0.39 0.43 0.40 0.36 0.31 0.25 0.20 0.14 0.12 0.13 0.13 0.10 0.08 0.06
0.00 0.00 0.00 0.00 0.00 0.00 0.00 0.00 0.00 0.00 0.00 0.01 0.01 0.01 0.02 0.06 0.11 0.15 0.17 0.18 0.23 0.41 0.44 0.36 0.32 0.23 0.23 0.27 0.37 0.41 0.34 0.35 0.37 0.38 0.37 0.33 0.31 0.29 0.23 0.19 0.21 0.22 0.20 0.20
0.00 0.00 0.00 0.00 0.00 0.00 0.00 0.00 0.00 0.00 0.00 0.00 0.00 0.00 0.01 0.01 0.02 0.05 0.09 0.12 0.12 0.13 0.21 0.29 0.29 0.18 0.17 0.18 0.21 0.24 0.30 0.33 0.30 0.30 0.33 0.37 0.35 0.34 0.34 0.32 0.31 0.29 0.26 0.21
0.00 0.00 0.00 0.00 0.00 0.00 0.00 0.00 0.00 0.00 0.00 0.00 0.01 0.00 0.00 0.00 0.00 0.00 0.01 0.02 0.06 0.09 0.11 0.16 0.16 0.15 0.13 0.16 0.14 0.14 0.18 0.20 0.22 0.24 0.24 0.26 0.29 0.31 0.32 0.35 0.32 0.28 0.26 0.27
0.00 0.00 0.00 0.00 0.00 0.00 0.00 0.00 0.00 0.00 0.00 0.01 0.01 0.01 0.00 0.00 0.00 0.00 0.00 0.00 0.01 0.06 0.02 0.05 0.11 0.10 0.09 0.09 0.11 0.10 0.12 0.16 0.17 0.18 0.20 0.18 0.21 0.24 0.26 0.27 0.27 0.27 0.26 0.27
0.00 0.00 0.00 0.00 0.00 0.00 0.00 0.00 0.01 0.01 0.00 0.00 0.01 0.01 0.00 0.00 0.00 0.00 0.00 0.00 0.00 0.02 0.01 0.00 0.05 0.08 0.04 0.07 0.07 0.09 0.09 0.10 0.12 0.15 0.15 0.16 0.16 0.16 0.20 0.22 0.22 0.23 0.25 0.25
0.00 0.00 0.00 0.00 0.00 0.01 0.00 0.01 0.02 0.01 0.00 0.00 0.00 0.00 0.00 0.00 0.00 0.00 0.00 0.00 0.00 0.02 0.02 0.00 0.04 0.15 0.07 0.03 0.01 0.05 0.09 0.10 0.11 0.11 0.11 0.13 0.14 0.14 0.14 0.16 0.18 0.19 0.21 0.23
0.00 0.00 0.01 0.01 0.03 0.02 0.00 0.01 0.01 0.00 0.00 0.00 0.00 0.00 0.00 0.00 0.01 0.01 0.01 0.00 0.00 0.02 0.04 0.01 0.03 0.18 0.08 0.00 0.00 0.00 0.01 0.05 0.10 0.12 0.12 0.13 0.12 0.13 0.12 0.12 0.13 0.15 0.16 0.16
0.00 0.01 0.01 0.01 0.02 0.02 0.02 0.00 0.00 0.00 0.00 0.00 0.00 0.00 0.00 0.00 0.00 0.00 0.00 0.00 0.01 0.02 0.03 0.02 0.02 0.11 0.11 0.00 0.00 0.00 0.00 0.00 0.01 0.05 0.08 0.12 0.12 0.12 0.12 0.11 0.10 0.11 0.12 0.12
0.02 0.02 0.01 0.02 0.02 0.02 0.01 0.00 0.00 0.00 0.00 0.00 0.00 0.00 0.00 0.00 0.01 0.00 0.00 0.00 0.01 0.02 0.01 0.01 0.03 0.03 0.01 0.00 0.00 0.00 0.00 0.00 0.00 0.01 0.00 0.04 0.07 0.09 0.10 0.10 0.11 0.12 0.10 0.09
0.02 0.02 0.02 0.02 0.03 0.01 0.00 0.00 0.01 0.01 0.01 0.00 0.00 0.00 0.00 0.00 0.00 0.00 0.00 0.00 0.01 0.01 0.02 0.01 0.00 0.01 0.01 0.00 0.00 0.00 0.00 0.00 0.00 0.00 0.00 0.00 0.01 0.01 0.03 0.05 0.07 0.09 0.10 0.10
0.01 0.01 0.03 0.02 0.00 0.00 0.00 0.02 0.05 0.02 0.00 0.01 0.01 0.01 0.01 0.01 0.01 0.01 0.01 0.00 0.00 0.00 0.00 0.00 0.00 0.00 0.00 0.00 0.00 0.00 0.00 0.00 0.00 0.00 0.00 0.00 0.00 0.00 0.00 0.01 0.02 0.03 0.04 0.05